Location: Chuathbaluk
(61.5726°N, 159.2454°W)
Time: 11:49:49
(UTC+00:00)

DIWATA 2B (PO-101) - Visible Passes

Search period start: 16 January 2021 00:00
Search period end: 26 January 2021 00:00
Orbit: 586 x 599 km, 97.9° (Epoch: 16 January)

Date Brightness Start Highest point End Pass type
(mag) Time Alt. Az. Time Alt. Az. Time Alt. Az.
16 Jan ? 03:19:47 10° N 03:22:17 16° NW 03:24:47 10° W visible
17 Jan ? 03:28:45 10° N 03:30:59 14° NW 03:33:12 10° WNW visible
18 Jan ? 03:37:46 10° NNW 03:39:40 13° NW 03:41:34 10° WNW visible
19 Jan ? 03:46:50 10° NNW 03:48:21 12° NW 03:49:51 10° WNW visible
20 Jan ? 03:56:02 10° NNW 03:57:01 11° NW 03:58:00 10° NW visible
